This is the latest recevied weather packets stored in our database for station/object OK1LPD-5. If no packets are shown the sender has not sent any weather packets the latest 10 day(s).
| Time | Temp. | Humidity | Pressure | Rain* | Wind** | Luminosity | Snow |
|---|---|---|---|---|---|---|---|
| 1776935410 | 15° C | 45% | 1022.6 hPa | 0 mm | - | - | - |
| 1776934810 | 15.56° C | 46% | 1022.8 hPa | 0 mm | - | - | - |
| 1776934213 | 15° C | 46% | 1023.2 hPa | 0 mm | - | - | - |
| 1776933609 | 15° C | 49% | 1023.4 hPa | 0 mm | - | - | - |
| 1776933009 | 15° C | 49% | 1023.7 hPa | 0 mm | - | - | - |
| 1776932412 | 14.44° C | 51% | 1024 hPa | 0 mm | - | - | - |
| 1776931809 | 15° C | 55% | 1024.2 hPa | 0 mm | - | - | - |
| 1776931211 | 14.44° C | 60% | 1024.4 hPa | 0 mm | - | - | - |
| 1776930612 | 13.33° C | 61% | 1024.6 hPa | 0 mm | - | - | - |
| 1776930009 | 12.78° C | 68% | 1024.6 hPa | 0 mm | - | - | - |
| 1776929409 | 11.11° C | 73% | 1024.7 hPa | 0 mm | - | - | - |
| 1776928812 | 10° C | 77% | 1024.8 hPa | 0 mm | - | - | - |
| 1776928209 | 9.44° C | 82% | 1024.8 hPa | 0 mm | - | - | - |
| 1776927610 | 8.89° C | 86% | 1025 hPa | 0 mm | - | - | - |
| 1776927012 | 7.78° C | 98% | 1025 hPa | 0 mm | - | - | - |
| 1776926409 | 6.67° C | 99% | 1025 hPa | 0 mm | - | - | - |
| 1776925809 | 5.56° C | 99% | 1024.9 hPa | 0 mm | - | - | - |
| 1776925211 | 3.33° C | 99% | 1024.8 hPa | 0 mm | - | - | - |
| 1776924608 | 2.78° C | 99% | 1025 hPa | 0 mm | - | - | - |
| 1776924009 | 2.22° C | 99% | 1025.1 hPa | 0 mm | - | - | - |
| 1776923412 | 2.22° C | 99% | 1025.1 hPa | 0 mm | - | - | - |
| 1776922809 | 1.67° C | 99% | 1025 hPa | 0 mm | - | - | - |
| 1776922209 | 1.11° C | 99% | 1025.1 hPa | 0 mm | - | - | - |
| 1776921609 | 0.56° C | 99% | 1025.3 hPa | 0 mm | - | - | - |
| 1776921009 | 0° C | 99% | 1025.1 hPa | 0 mm | - | - | - |
* Rain latest hour (hover to see other rain measurements)
** Current wind speed in m/s (hover to see current wind gust speed)